SIT-2086

Last updated on Sun Aug 09 2026 00:03:16 GMT+0000 (Coordinated Universal Time)

1 61764U 24199AF 26220.58132138 .00027268 00000+0 38108-3 0 9999 2 61764 97.2850 97.8773 0008377 78.5000 281.7196 15.56782459142578
UTC large
Height (km)
Speed (km/s)
/
Latitude / Longitude
Inclination (degrees)
Orbital Period (minutes)
Azimuth
Elevation
Range (km)
Doppler Factor

Next 0 passes for location: London (51.5072 / 0.1276)

No passes found over London.
SIT-2086